Location: Niedergestelen
(46.3129°N, 7.7822°E)
Time: 06:27:39
(UTC+00:00)

OE (NEXTSAT) - Pass Details

Date: 01 December 2020
Orbit: 428 x 435 km, 46.0° (Epoch: 18 January)

Event Time Altitude Azimuth Distance (km) Brightness Sun altitude
Rises 16:51:31 0° 271° (W) 2,395 9.5 -11.3°
Reaches altitude 10° 16:53:38 10° 271° (W) 1,527 8.3 -11.6°
Maximum altitude 16:57:05 87° 184° (S) 434 4.3 -12.2°
Enters shadow 16:59:23 20° 95° (E) 1,069 5.7 -12.6°
